BAW535 LPPD-EGLL

Flight info

Callsign BAW535
Flight time N/A
Altitude 270
Route M071F270 BEKUN9V BEKUN DCT LENSI DCT ERPES/N0408F360 DCT RIPEL DCT KORUL/N0449F380 DCT FEJAC DCT JSY/N0444F340 DCT REVTU UP87 ROXOG ROXOG1H
Aircraft A320/M-SDE3FGIKRWXY/S

Departure

Time 2026-04-27 18:13
Airport João Paulo II Airport (LPPD)

Arrival

Time N/A
Airport London Heathrow Airport (EGLL)
Time Latitude Longitude Altitude Speed Heading
2026-04-27 18:00 37.74892 -25.71170 271 ft 0 kts 22°
2026-04-27 18:05 37.74887 -25.71173 271 ft 4 kts 22°
2026-04-27 18:05 37.74862 -25.71186 274 ft 4 kts 22°
2026-04-27 18:05 37.74843 -25.71196 277 ft 4 kts 45°
2026-04-27 18:06 37.74837 -25.71221 273 ft 3 kts 111°
2026-04-27 18:06 37.74844 -25.71241 274 ft 0 kts 111°
2026-04-27 18:09 37.74839 -25.71226 275 ft 4 kts 112°
2026-04-27 18:10 37.74825 -25.71182 271 ft 7 kts 111°
2026-04-27 18:10 37.74800 -25.71104 271 ft 13 kts 111°
2026-04-27 18:10 37.74738 -25.71023 271 ft 15 kts 175°
2026-04-27 18:10 37.74630 -25.71022 272 ft 16 kts 167°
2026-04-27 18:11 37.74561 -25.70909 270 ft 13 kts 111°
2026-04-27 18:11 37.74559 -25.70903 270 ft 0 kts 111°
2026-04-27 18:12 37.74506 -25.70734 267 ft 56 kts 111°
2026-04-27 18:12 37.74271 -25.69996 237 ft 122 kts 111°
2026-04-27 18:12 37.73885 -25.68811 319 ft 161 kts 113°
2026-04-27 18:13 37.73449 -25.67458 954 ft 168 kts 115°
2026-04-27 18:13 37.73020 -25.66019 1321 ft 186 kts 115°
2026-04-27 18:13 37.72574 -25.64405 1546 ft 210 kts 113°
2026-04-27 18:13 37.72063 -25.62570 1906 ft 234 kts 113°
2026-04-27 18:14 37.71497 -25.60554 2445 ft 250 kts 113°
2026-04-27 18:14 37.70907 -25.58456 3235 ft 256 kts 113°
2026-04-27 18:14 37.70312 -25.56316 4071 ft 261 kts 113°
2026-04-27 18:14 37.69712 -25.54138 4897 ft 266 kts 113°
2026-04-27 18:15 37.69096 -25.51917 5686 ft 270 kts 113°
2026-04-27 18:15 37.68463 -25.49657 6482 ft 275 kts 113°
2026-04-27 18:15 37.67812 -25.47370 7233 ft 279 kts 113°
2026-04-27 18:15 37.67156 -25.45086 7987 ft 283 kts 110°
2026-04-27 18:16 37.66906 -25.42601 8700 ft 292 kts 88°
2026-04-27 18:16 37.67147 -25.40034 9455 ft 296 kts 84°
2026-04-27 18:16 37.67467 -25.37453 10210 ft 299 kts 82°
2026-04-27 18:16 37.67825 -25.34798 10547 ft 318 kts 82°
2026-04-27 18:17 37.68222 -25.31945 10699 ft 341 kts 81°
2026-04-27 18:17 37.68646 -25.28936 11050 ft 354 kts 81°
2026-04-27 18:17 37.69081 -25.25852 11645 ft 359 kts 81°
2026-04-27 18:17 37.69514 -25.22732 12277 ft 362 kts 82°
2026-04-27 18:18 37.69937 -25.19633 12912 ft 366 kts 82°
2026-04-27 18:18 37.70368 -25.16446 13543 ft 369 kts 82°
2026-04-27 18:18 37.70800 -25.13233 14149 ft 373 kts 82°
2026-04-27 18:18 37.71236 -25.09994 14697 ft 376 kts 82°
2026-04-27 18:19 37.71675 -25.06723 15235 ft 379 kts 81°
2026-04-27 18:19 37.72120 -25.03425 15760 ft 383 kts 81°
2026-04-27 18:19 37.72569 -25.00096 16285 ft 386 kts 81°
2026-04-27 18:19 37.73018 -24.96737 16817 ft 390 kts 81°
2026-04-27 18:20 37.73461 -24.93396 17348 ft 393 kts 81°
2026-04-27 18:20 37.73914 -24.89977 17894 ft 396 kts 81°
2026-04-27 18:20 37.74371 -24.86527 18453 ft 400 kts 81°
2026-04-27 18:20 37.74833 -24.83051 18944 ft 403 kts 80°
2026-04-27 18:21 37.75299 -24.79545 19455 ft 406 kts 80°
2026-04-27 18:21 37.75769 -24.76010 19974 ft 409 kts 80°
2026-04-27 18:21 37.76242 -24.72447 20495 ft 412 kts 80°
2026-04-27 18:21 37.76713 -24.68866 21007 ft 415 kts 80°
2026-04-27 18:22 37.77178 -24.65301 21492 ft 418 kts 79°
2026-04-27 18:22 37.77651 -24.61671 21973 ft 421 kts 79°
2026-04-27 18:22 37.78127 -24.58001 22432 ft 424 kts 79°
2026-04-27 18:22 37.78603 -24.54316 22881 ft 427 kts 79°
2026-04-27 18:23 37.79084 -24.50605 23320 ft 429 kts 79°
2026-04-27 18:23 37.79569 -24.46863 23753 ft 432 kts 79°
2026-04-27 18:23 37.80056 -24.43106 24107 ft 435 kts 79°
2026-04-27 18:23 37.80541 -24.39321 24446 ft 438 kts 79°
2026-04-27 18:24 37.81021 -24.35563 24795 ft 440 kts 79°
2026-04-27 18:24 37.81510 -24.31734 25135 ft 442 kts 79°
2026-04-27 18:24 37.81999 -24.27884 25471 ft 445 kts 79°
2026-04-27 18:24 37.82494 -24.24006 25805 ft 447 kts 79°
2026-04-27 18:25 37.82993 -24.20116 26135 ft 449 kts 79°
2026-04-27 18:25 37.83493 -24.16206 26449 ft 452 kts 79°
2026-04-27 18:25 37.83992 -24.12268 26784 ft 454 kts 79°
2026-04-27 18:25 37.84489 -24.08315 27093 ft 456 kts 79°
2026-04-27 18:26 37.84984 -24.04355 27182 ft 455 kts 79°
2026-04-27 18:26 37.85474 -24.00410 27197 ft 452 kts 79°
2026-04-27 18:26 37.85962 -23.96483 27195 ft 451 kts 79°
2026-04-27 18:26 37.86442 -23.92616 27193 ft 451 kts 79°
2026-04-27 18:27 37.86932 -23.88699 27198 ft 451 kts 79°
2026-04-27 18:27 37.87426 -23.84785 27198 ft 450 kts 79°
2026-04-27 18:27 37.87918 -23.80867 27198 ft 450 kts 79°
2026-04-27 18:27 37.88403 -23.76953 27198 ft 450 kts 79°
2026-04-27 18:28 37.88887 -23.73044 27198 ft 450 kts 79°
2026-04-27 18:28 37.89368 -23.69130 27195 ft 450 kts 79°
2026-04-27 18:28 37.89842 -23.65267 27196 ft 450 kts 79°
2026-04-27 18:28 37.90320 -23.61359 27196 ft 449 kts 79°
2026-04-27 18:29 37.90792 -23.57446 27198 ft 449 kts 79°
2026-04-27 18:29 37.91258 -23.53538 27199 ft 449 kts 79°
2026-04-27 18:29 37.91727 -23.49630 27197 ft 449 kts 79°
2026-04-27 18:29 37.92197 -23.45725 27199 ft 449 kts 79°
2026-04-27 18:30 37.92667 -23.41820 27200 ft 448 kts 79°
2026-04-27 18:30 37.93144 -23.37899 27249 ft 455 kts 79°
2026-04-27 18:30 37.93628 -23.33905 27388 ft 462 kts 79°
2026-04-27 18:30 37.94109 -23.29852 27511 ft 468 kts 79°
2026-04-27 18:31 37.94601 -23.25801 27639 ft 473 kts 77°
2026-04-27 18:31 37.95475 -23.21785 27821 ft 474 kts 67°
2026-04-27 18:31 37.96763 -23.17941 28132 ft 473 kts 64°
2026-04-27 18:31 37.98078 -23.14119 28503 ft 473 kts 64°
2026-04-27 18:32 37.99387 -23.10295 28889 ft 472 kts 64°
2026-04-27 18:32 38.00689 -23.06474 29289 ft 472 kts 64°
2026-04-27 18:32 38.01983 -23.02658 29701 ft 471 kts 64°
2026-04-27 18:32 38.03274 -22.98850 30105 ft 470 kts 64°
2026-04-27 18:33 38.04566 -22.95045 30477 ft 469 kts 64°
2026-04-27 18:33 38.05860 -22.91249 30826 ft 468 kts 63°
2026-04-27 18:33 38.07136 -22.87511 31169 ft 467 kts 63°
2026-04-27 18:33 38.08426 -22.83731 31513 ft 467 kts 63°
2026-04-27 18:34 38.09710 -22.79947 31862 ft 466 kts 63°
2026-04-27 18:34 38.10984 -22.76173 32215 ft 465 kts 63°
2026-04-27 18:34 38.12254 -22.72399 32570 ft 464 kts 63°
2026-04-27 18:34 38.13526 -22.68632 32922 ft 464 kts 63°
2026-04-27 18:35 38.14799 -22.64874 33284 ft 463 kts 63°
2026-04-27 18:35 38.16067 -22.61125 33636 ft 462 kts 63°
2026-04-27 18:35 38.17330 -22.57372 33993 ft 461 kts 63°
2026-04-27 18:35 38.18567 -22.53674 34329 ft 461 kts 63°
2026-04-27 18:36 38.19818 -22.49927 34619 ft 460 kts 63°
2026-04-27 18:36 38.21070 -22.46183 34893 ft 460 kts 63°
2026-04-27 18:36 38.22322 -22.42437 35133 ft 461 kts 63°
2026-04-27 18:36 38.23575 -22.38683 35205 ft 461 kts 63°
2026-04-27 18:37 38.26078 -22.31174 35208 ft 460 kts 63°
2026-04-27 18:37 38.28571 -22.23680 35208 ft 460 kts 63°
2026-04-27 18:38 38.31048 -22.16229 35209 ft 460 kts 63°
2026-04-27 18:38 38.33531 -22.08735 35208 ft 459 kts 63°
2026-04-27 18:39 38.36009 -22.01240 35213 ft 459 kts 63°
2026-04-27 18:39 38.38480 -21.93740 35217 ft 459 kts 63°
2026-04-27 18:40 38.40920 -21.86286 35222 ft 459 kts 63°
2026-04-27 18:40 38.43374 -21.78777 35221 ft 458 kts 63°
2026-04-27 18:41 38.45829 -21.71275 35228 ft 458 kts 63°
2026-04-27 18:41 38.48276 -21.63769 35228 ft 458 kts 63°
2026-04-27 18:42 38.50303 -21.57527 35229 ft 458 kts 63°
2026-04-27 18:42 38.53127 -21.48802 35225 ft 457 kts 64°
2026-04-27 18:43 38.55553 -21.41292 35227 ft 457 kts 64°
2026-04-27 18:43 38.57970 -21.33782 35228 ft 457 kts 64°
2026-04-27 18:44 38.60386 -21.26278 35229 ft 457 kts 64°
2026-04-27 18:44 38.62771 -21.18828 35453 ft 455 kts 64°
2026-04-27 18:45 38.63971 -21.15079 35701 ft 455 kts 64°
2026-04-27 18:45 38.65167 -21.11344 35951 ft 454 kts 64°
2026-04-27 18:45 38.66363 -21.07611 36150 ft 454 kts 64°
2026-04-27 18:45 38.67561 -21.03860 36208 ft 454 kts 64°
2026-04-27 18:46 38.69934 -20.96387 36212 ft 453 kts 64°
2026-04-27 18:46 38.72305 -20.88919 36208 ft 453 kts 64°
2026-04-27 18:47 38.74655 -20.81500 36210 ft 452 kts 64°
2026-04-27 18:47 38.77008 -20.74028 36207 ft 452 kts 64°
2026-04-27 18:48 38.79364 -20.66555 36215 ft 452 kts 64°
2026-04-27 18:48 38.81714 -20.59078 36220 ft 452 kts 64°
2026-04-27 18:49 38.84054 -20.51594 36221 ft 452 kts 65°
2026-04-27 18:49 38.86368 -20.44156 36222 ft 452 kts 65°
2026-04-27 18:50 38.88699 -20.36676 36228 ft 451 kts 65°
2026-04-27 18:50 38.91023 -20.29192 36230 ft 451 kts 65°
2026-04-27 18:51 38.93342 -20.21717 36232 ft 451 kts 65°
2026-04-27 18:51 38.95635 -20.14291 36228 ft 450 kts 65°
2026-04-27 18:52 38.97931 -20.06811 36229 ft 450 kts 65°
2026-04-27 18:53 39.01052 -19.95429 36230 ft 452 kts 70°
2026-04-27 18:53 39.02773 -19.87716 36232 ft 451 kts 70°
2026-04-27 18:54 39.04503 -19.79958 36230 ft 451 kts 70°
2026-04-27 18:54 39.06223 -19.72202 36232 ft 451 kts 70°
2026-04-27 18:55 39.07945 -19.64441 36232 ft 451 kts 70°
2026-04-27 18:55 39.09661 -19.56684 36235 ft 450 kts 70°
2026-04-27 18:56 39.11347 -19.48979 36231 ft 450 kts 70°
2026-04-27 18:56 39.13042 -19.41222 36232 ft 450 kts 70°
2026-04-27 18:57 39.14740 -19.33468 36230 ft 450 kts 70°
2026-04-27 18:57 39.16430 -19.25713 36230 ft 449 kts 70°
2026-04-27 18:58 39.18094 -19.18025 36228 ft 449 kts 70°
2026-04-27 18:58 39.19761 -19.10295 36229 ft 449 kts 70°
2026-04-27 18:59 39.21429 -19.02537 36229 ft 449 kts 70°
2026-04-27 18:59 39.23097 -18.94782 36232 ft 448 kts 70°
2026-04-27 19:00 39.24743 -18.87080 36230 ft 448 kts 70°
2026-04-27 19:00 39.26392 -18.79331 36229 ft 448 kts 70°
2026-04-27 19:01 39.28033 -18.71587 36233 ft 447 kts 70°
2026-04-27 19:01 39.29672 -18.63840 36229 ft 447 kts 70°
2026-04-27 19:02 39.31291 -18.56139 36221 ft 448 kts 70°
2026-04-27 19:02 39.32924 -18.48377 36222 ft 448 kts 70°
2026-04-27 19:03 39.34550 -18.40608 36221 ft 448 kts 71°
2026-04-27 19:03 39.36169 -18.32823 36223 ft 449 kts 71°
2026-04-27 19:04 39.37775 -18.25082 36232 ft 449 kts 71°
2026-04-27 19:04 39.39391 -18.17275 36228 ft 450 kts 71°
2026-04-27 19:05 39.41006 -18.09468 36232 ft 450 kts 71°
2026-04-27 19:05 39.42614 -18.01638 36230 ft 450 kts 71°
2026-04-27 19:06 39.44216 -17.93805 36228 ft 450 kts 71°
2026-04-27 19:06 39.45797 -17.86021 36230 ft 450 kts 71°
2026-04-27 19:07 39.47387 -17.78183 36226 ft 450 kts 71°
2026-04-27 19:07 39.48978 -17.70336 36226 ft 451 kts 71°
2026-04-27 19:08 39.50557 -17.62480 36219 ft 451 kts 71°
2026-04-27 19:08 39.52128 -17.54681 36223 ft 451 kts 71°
2026-04-27 19:09 39.53705 -17.46815 36219 ft 451 kts 72°
2026-04-27 19:09 39.55271 -17.38942 36221 ft 451 kts 72°
2026-04-27 19:10 39.56827 -17.31068 36215 ft 451 kts 72°
2026-04-27 19:10 39.58380 -17.23178 36213 ft 452 kts 72°
2026-04-27 19:11 39.59928 -17.15344 36210 ft 452 kts 72°
2026-04-27 19:11 39.61483 -17.07452 36207 ft 452 kts 72°
2026-04-27 19:12 39.63027 -16.99543 36208 ft 452 kts 72°
2026-04-27 19:12 39.64556 -16.91687 36206 ft 453 kts 72°
2026-04-27 19:13 39.66092 -16.83766 36204 ft 453 kts 72°
2026-04-27 19:13 39.67626 -16.75835 36204 ft 453 kts 72°
2026-04-27 19:14 39.69155 -16.67895 36204 ft 453 kts 73°
2026-04-27 19:14 39.70670 -16.59943 36204 ft 454 kts 73°
2026-04-27 19:15 39.72180 -16.52039 36203 ft 454 kts 73°
2026-04-27 19:15 39.73700 -16.44077 36205 ft 455 kts 73°
2026-04-27 19:16 39.75211 -16.36093 36200 ft 455 kts 73°
2026-04-27 19:16 39.76708 -16.28159 36200 ft 455 kts 73°
2026-04-27 19:17 39.78205 -16.20170 36200 ft 455 kts 73°
2026-04-27 19:17 39.79697 -16.12179 36195 ft 455 kts 74°
2026-04-27 19:18 39.81183 -16.04179 36193 ft 456 kts 74°
2026-04-27 19:18 39.82668 -15.96173 36199 ft 456 kts 74°
2026-04-27 19:19 39.84153 -15.88147 36193 ft 456 kts 74°
2026-04-27 19:19 39.85617 -15.80178 36188 ft 456 kts 74°
2026-04-27 19:20 39.87084 -15.72138 36185 ft 457 kts 75°
2026-04-27 19:20 39.88550 -15.64095 36183 ft 457 kts 74°
2026-04-27 19:21 39.90022 -15.56032 36186 ft 458 kts 75°
2026-04-27 19:21 39.91461 -15.48090 36180 ft 458 kts 75°
2026-04-27 19:22 39.92921 -15.39983 36176 ft 459 kts 75°
2026-04-27 19:22 39.94369 -15.31878 36171 ft 459 kts 75°
2026-04-27 19:23 39.95815 -15.23757 36167 ft 460 kts 75°
2026-04-27 19:23 39.97251 -15.15688 36165 ft 460 kts 75°
2026-04-27 19:24 39.98694 -15.07551 36158 ft 461 kts 76°
2026-04-27 19:24 40.00689 -14.99643 36161 ft 459 kts 60°
2026-04-27 19:25 40.04235 -14.92802 36158 ft 456 kts 50°
2026-04-27 19:25 40.07431 -14.87319 36154 ft 457 kts 51°
2026-04-27 19:26 40.11885 -14.79610 36151 ft 458 kts 51°
2026-04-27 19:26 40.15724 -14.72960 36153 ft 458 kts 51°
2026-04-27 19:27 40.18920 -14.67425 36153 ft 459 kts 51°
2026-04-27 19:27 40.22767 -14.60757 36149 ft 459 kts 51°
2026-04-27 19:28 40.26620 -14.54080 36152 ft 460 kts 51°
2026-04-27 19:28 40.30463 -14.47389 36152 ft 460 kts 52°
2026-04-27 19:29 40.34301 -14.40685 36147 ft 460 kts 52°
2026-04-27 19:29 40.38143 -14.33957 36138 ft 461 kts 52°
2026-04-27 19:30 40.41964 -14.27261 36152 ft 462 kts 52°
2026-04-27 19:30 40.45805 -14.20504 36146 ft 462 kts 52°
2026-04-27 19:31 40.49657 -14.13730 36143 ft 463 kts 52°
2026-04-27 19:31 40.53511 -14.06937 36159 ft 464 kts 52°
2026-04-27 19:32 40.57368 -14.00129 36144 ft 464 kts 52°
2026-04-27 19:32 40.61218 -13.93299 36142 ft 465 kts 53°
2026-04-27 19:33 40.65044 -13.86499 36151 ft 466 kts 52°
2026-04-27 19:33 40.68903 -13.79641 36154 ft 466 kts 53°
2026-04-27 19:34 40.72765 -13.72759 36144 ft 467 kts 53°
2026-04-27 19:34 40.76623 -13.65862 36139 ft 468 kts 53°
2026-04-27 19:35 40.80477 -13.58943 36135 ft 468 kts 53°
2026-04-27 19:35 40.84311 -13.52060 36143 ft 469 kts 53°
2026-04-27 19:36 40.88088 -13.45270 36139 ft 469 kts 53°
2026-04-27 19:36 40.91943 -13.38314 36140 ft 469 kts 53°
2026-04-27 19:37 40.95794 -13.31355 36137 ft 469 kts 53°
2026-04-27 19:37 40.99649 -13.24375 36145 ft 470 kts 53°
2026-04-27 19:38 41.03483 -13.17423 36145 ft 470 kts 53°
2026-04-27 19:38 41.07330 -13.10411 36131 ft 471 kts 54°
2026-04-27 19:39 41.11174 -13.03381 36142 ft 471 kts 54°
2026-04-27 19:39 41.15024 -12.96346 36142 ft 471 kts 54°
2026-04-27 19:40 41.18874 -12.89309 36140 ft 471 kts 54°
2026-04-27 19:40 41.22690 -12.82296 36130 ft 472 kts 54°
2026-04-27 19:41 41.26525 -12.75221 36140 ft 472 kts 54°
2026-04-27 19:41 41.30367 -12.68132 36131 ft 473 kts 54°
2026-04-27 19:42 41.34215 -12.61037 36142 ft 473 kts 54°
2026-04-27 19:42 41.38060 -12.53920 36137 ft 473 kts 54°
2026-04-27 19:43 41.41863 -12.46827 36130 ft 474 kts 54°
2026-04-27 19:43 41.45703 -12.39683 36133 ft 474 kts 54°
2026-04-27 19:44 41.49539 -12.32530 36134 ft 474 kts 54°
2026-04-27 19:44 41.53375 -12.25367 36139 ft 474 kts 54°
2026-04-27 19:45 41.57202 -12.18190 36128 ft 475 kts 54°
2026-04-27 19:45 41.61020 -12.10998 36128 ft 475 kts 55°
2026-04-27 19:46 41.64819 -12.03837 36117 ft 475 kts 54°
2026-04-27 19:46 41.68639 -11.96617 36115 ft 476 kts 55°
2026-04-27 19:47 41.72463 -11.89389 36123 ft 476 kts 55°
2026-04-27 19:47 41.76284 -11.82137 36126 ft 477 kts 55°
2026-04-27 19:48 41.80078 -11.74925 36126 ft 477 kts 55°
2026-04-27 19:48 41.83891 -11.67647 36127 ft 477 kts 55°
2026-04-27 19:49 41.87706 -11.60359 36132 ft 477 kts 55°
2026-04-27 19:49 41.91516 -11.53064 36122 ft 477 kts 55°
2026-04-27 19:50 41.95322 -11.45750 36112 ft 478 kts 55°
2026-04-27 19:50 41.99093 -11.38480 36121 ft 478 kts 55°
2026-04-27 19:51 42.02897 -11.31145 36125 ft 478 kts 55°
2026-04-27 19:51 42.06695 -11.23802 36119 ft 478 kts 55°
2026-04-27 19:52 42.10484 -11.16444 36103 ft 478 kts 55°
2026-04-27 19:52 42.14250 -11.09127 36109 ft 478 kts 55°
2026-04-27 19:53 42.19935 -10.98051 36100 ft 479 kts 55°
2026-04-27 19:53 42.23725 -10.90654 36111 ft 479 kts 55°
2026-04-27 19:54 42.27511 -10.83242 36110 ft 479 kts 54°
2026-04-27 19:54 42.31855 -10.76552 36105 ft 479 kts 46°
2026-04-27 19:55 42.36437 -10.70006 36092 ft 479 kts 46°
2026-04-27 19:55 42.41018 -10.63450 36093 ft 479 kts 46°
2026-04-27 19:56 42.45589 -10.56881 36093 ft 479 kts 46°
2026-04-27 19:56 42.50125 -10.50343 36079 ft 480 kts 46°
2026-04-27 19:57 42.54690 -10.43749 36096 ft 480 kts 46°
2026-04-27 19:57 42.59260 -10.37128 36099 ft 480 kts 46°
2026-04-27 19:58 42.63821 -10.30497 36094 ft 480 kts 46°
2026-04-27 19:58 42.68377 -10.23857 36098 ft 480 kts 46°
2026-04-27 19:59 42.72903 -10.17261 36091 ft 480 kts 46°
2026-04-27 19:59 42.77457 -10.10612 36085 ft 480 kts 46°
2026-04-27 20:00 42.82001 -10.03953 36080 ft 480 kts 46°
2026-04-27 20:00 42.86545 -9.97285 36082 ft 480 kts 46°
2026-04-27 20:01 42.91055 -9.90651 36086 ft 480 kts 46°
2026-04-27 20:01 42.95587 -9.83960 36095 ft 480 kts 46°
2026-04-27 20:02 43.00113 -9.77285 36098 ft 480 kts 46°
2026-04-27 20:02 43.03375 -9.72459 36101 ft 481 kts 46°
2026-04-27 20:03 43.03526 -9.72236 36092 ft 480 kts 46°
2026-04-27 20:03 43.04855 -9.70475 36055 ft 479 kts 35°
2026-04-27 20:04 43.07467 -9.68270 35826 ft 473 kts 21°